TimePDT,TemperatureF,Dew PointF,Humidity,Sea Level PressureIn,VisibilityMPH,Wind Direction,Wind SpeedMPH,Gust SpeedMPH,PrecipitationIn,Events,Conditions,WindDirDegrees,DateUTC
12:03 AM,57.2,57.2,100,29.94,5.0,Variable,2.3,-,N/A,,Overcast,0,2013-10-21 07:03:00
12:28 AM,59.0,59.0,100,29.94,5.0,North,3.5,-,N/A,,Overcast,360,2013-10-21 07:28:00
12:38 AM,59.0,59.0,100,29.94,5.0,North,2.3,-,N/A,,Overcast,10,2013-10-21 07:38:00
12:48 AM,59.0,59.0,100,29.94,5.0,NNE,2.3,-,N/A,,Overcast,20,2013-10-21 07:48:00
12:58 AM,59.4,59.4,100,29.95,5.0,East,3.5,-,N/A,,Overcast,90,2013-10-21 07:58:00
1:33 AM,59.0,59.0,100,29.95,5.0,NW,1.2,-,N/A,,Overcast,310,2013-10-21 08:33:00
1:48 AM,59.0,59.0,100,29.95,5.0,Variable,2.3,-,N/A,,Overcast,0,2013-10-21 08:48:00
1:53 AM,59.0,59.0,100,29.96,4.0,Variable,1.2,-,N/A,,Overcast,0,2013-10-21 08:53:00
1:58 AM,59.2,59.2,100,29.97,4.0,Calm,Calm,-,N/A,,Overcast,0,2013-10-21 08:58:00
2:48 AM,59.0,59.0,100,29.96,4.0,Calm,Calm,-,N/A,,Overcast,0,2013-10-21 09:48:00
2:58 AM,58.8,58.8,100,29.96,3.0,NNE,2.3,-,N/A,,Overcast,30,2013-10-21 09:58:00
3:58 AM,58.6,58.6,100,29.96,3.0,Calm,Calm,-,N/A,,Overcast,0,2013-10-21 10:58:00
4:38 AM,59.0,59.0,100,29.94,4.0,Calm,Calm,-,N/A,,Overcast,0,2013-10-21 11:38:00
4:48 AM,59.0,59.0,100,29.94,5.0,Calm,Calm,-,N/A,,Overcast,0,2013-10-21 11:48:00
4:58 AM,58.6,58.6,100,29.95,5.0,Calm,Calm,-,N/A,,Overcast,0,2013-10-21 11:58:00
5:38 AM,59.0,59.0,100,29.95,5.0,Variable,2.3,-,N/A,,Overcast,0,2013-10-21 12:38:00
5:58 AM,58.6,58.6,100,29.96,5.0,Calm,Calm,-,N/A,,Overcast,0,2013-10-21 12:58:00
6:58 AM,58.8,58.8,100,29.97,5.0,Variable,1.2,-,N/A,,Overcast,0,2013-10-21 13:58:00
7:58 AM,59.5,59.5,100,29.98,4.0,NE,3.5,-,N/A,,Overcast,40,2013-10-21 14:58:00
8:05 AM,59.0,59.0,100,29.97,4.0,NNE,1.2,-,N/A,,Overcast,30,2013-10-21 15:05:00
8:35 AM,60.8,60.8,100,29.98,4.0,ENE,1.2,-,N/A,,Overcast,70,2013-10-21 15:35:00
8:54 AM,60.8,60.8,100,29.98,4.0,Calm,Calm,-,N/A,,Overcast,0,2013-10-21 15:54:00
8:58 AM,60.1,60.1,100,29.99,3.0,South,2.3,-,N/A,,Overcast,180,2013-10-21 15:58:00
9:18 AM,60.8,60.8,100,29.99,4.0,Variable,1.2,-,N/A,,Overcast,0,2013-10-21 16:18:00
9:58 AM,62.8,62.2,98,29.99,4.0,East,3.5,-,N/A,,Mostly Cloudy,90,2013-10-21 16:58:00
10:13 AM,64.4,60.8,88,29.99,4.0,Variable,2.3,-,N/A,,Scattered Clouds,0,2013-10-21 17:13:00
10:58 AM,66.0,57.6,74,29.99,6.0,South,3.5,-,N/A,,Haze,190,2013-10-21 17:58:00
11:58 AM,67.8,55.6,65,29.98,6.0,SW,8.1,-,N/A,,Haze,220,2013-10-21 18:58:00
12:58 PM,70.5,52.3,52,29.96,7.0,South,5.8,-,N/A,,Clear,190,2013-10-21 19:58:00
1:58 PM,70.5,53.1,54,29.94,10.0,South,9.2,-,N/A,,Clear,180,2013-10-21 20:58:00
2:58 PM,70.5,52.5,53,29.93,10.0,SSW,9.2,-,N/A,,Clear,200,2013-10-21 21:58:00
3:58 PM,69.6,54.3,58,29.92,10.0,SSW,8.1,-,N/A,,Clear,200,2013-10-21 22:58:00
4:58 PM,68.9,55.0,61,29.91,10.0,SSW,8.1,-,N/A,,Clear,200,2013-10-21 23:58:00
5:58 PM,66.4,59.7,79,29.92,10.0,South,3.5,-,N/A,,Clear,180,2013-10-22 00:58:00
6:58 PM,63.0,60.8,93,29.93,10.0,West,6.9,-,N/A,,Clear,280,2013-10-22 01:58:00
7:58 PM,61.3,61.2,99,29.95,10.0,WNW,4.6,-,N/A,,Clear,290,2013-10-22 02:58:00
8:58 PM,60.4,60.4,100,29.97,10.0,West,5.8,-,N/A,,Clear,280,2013-10-22 03:58:00
9:58 PM,58.6,58.6,100,29.99,10.0,NNW,1.2,-,N/A,,Clear,340,2013-10-22 04:58:00
10:58 PM,57.7,57.7,100,29.99,9.0,Calm,Calm,-,N/A,,Clear,0,2013-10-22 05:58:00
11:58 PM,56.3,56.3,100,29.99,7.0,Calm,Calm,-,N/A,,Clear,0,2013-10-22 06:58:00